Regional Weather Roundup
Issued by NWS Cleveland, OH

Home | Current Version | Previous Version | Text Only | Print | Product List | Glossary Off
Versions: 1 2 3 4 5 6 7 8 9 10 11 12 13 14 15 16 17 18 19 20 21 22 23 24 25 26 27 28 29 30 31 32 33 34 35 36 37 38 39 40 41 42 43 44 45 46 47 48 49 50

000
ASUS41 KCLE 180502
RWRCLE
OHIO REGIONAL WEATHER ROUNDUP
NATIONAL WEATHER SERVICE CLEVELAND, OH
100 AM EDT FRI APR 18 2014

NOTE: "FAIR" INDICATES FEW OR NO CLOUDS BELOW 12,000 FEET WITH NO
SIGNIFICANT WEATHER AND/OR OBSTRUCTIONS TO VISIBILITY.

OHZ001>008-015>018-024>027-034-035-043-044-180600-
   NORTHWEST OHIO

CITY           SKY/WX    TMP DP  RH WIND       PRES   REMARKS
DEFIANCE       CLOUDY    50  35  56 S3        30.25S
FINDLAY        CLOUDY    50  38  63 S8        30.25F
TOLEDO EXPRESS MOCLDY    46  36  68 CALM      30.24F
TOLEDO EXEC    CLOUDY    51  37  58 SW6       30.25F
LIMA           MOCLDY    51  37  58 S8        30.26S
$$

OHZ009>014-019>023-028>033-038-089-180600-
   NORTHEAST OHIO

CITY           SKY/WX    TMP DP  RH WIND       PRES   REMARKS
CLE-HOPKINS    CLOUDY    53  33  46 S8        30.30F
CLE-LAKEFRONT  MOCLDY    56  31  38 SE9       30.26F
CUY CO. ARPT   NOT AVBL
LORAIN-ELYRIA  CLOUDY    54  34  46 S7        30.28F
ASHTABULA      CLEAR     50  28  42 SE10      30.32F
AKRON-CANTON   PTCLDY    52  32  46 SE6       30.31S
WOOSTER        MOCLDY    42  35  76 CALM      30.29F
MANSFIELD      CLOUDY    46  33  60 S3        30.29S
YOUNGSTOWN     MOCLDY    48  27  44 SE10      30.32F
$$

OHZ042-051>053-060>062-070>072-077>081-180600-
  SOUTHWEST OHIO

CITY           SKY/WX    TMP DP  RH WIND       PRES   REMARKS
CINC-COVINGTON MOCLDY    52  35  52 CALM      30.27S
CINC-LUNKEN    PTCLDY    42  39  89 CALM      30.29S
HAMILTON       PTCLDY    42  37  82 CALM      30.28S
DAYTON         PTCLDY    55  34  45 S5        30.27F
WRIGHT-PAT AFB CLEAR     45  37  71 E2        30.27F
DAYTON GENERAL CLEAR     49  35  58 SE3       30.26F
WILMINGTON     CLEAR     47  34  60 SE5       30.28S
$$

OHZ036-037-039>041-045>050-054>059-063>069-073>076-082>088-180600-
  CENTRAL AND SOUTHEAST OHIO

CITY           SKY/WX    TMP DP  RH WIND       PRES   REMARKS
COLUMBUS       PTCLDY    49  34  56 CALM      30.27F
OSU AIRPORT    PTCLDY    47  33  58 CALM      30.27F
BOLTON FIELD   NOT AVBL
RICKENBACK AFB NOT AVBL
NEWARK         CLEAR     40  34  79 CALM      30.28F
MARION         PTCLDY    43  35  73 S6        30.28S
LANCASTER      CLEAR     40  35  83 CALM      30.29F
ZANESVILLE     CLEAR     42  30  62 S3        30.29F
NEW PHILLY     CLEAR     45  31  58 SE6       30.32S
$$



USA.gov is the U.S. government's official web portal to all federal, state and local government web resources and services.